QPF
0.07 0.09 0.07 0.06 0.05 0.05 0.05 0.08 0.08 0.07 0.06 0.04 0.03 0.04 0.04 0.05 0.09 0.04 0.02 0.03 0.03 0.03 0.02 0.02 0.01 0.01 0.02 0.02 0.02 0.02 0.02 0.03 0.03 0.03 0.03 0.03 0.04 0.04
0.07 0.09 0.09 0.07 0.06 0.05 0.06 0.08 0.10 0.10 0.06 0.03 0.02 0.01 0.01 0.02 0.07 0.05 0.03 0.03 0.03 0.03 0.02 0.02 0.02 0.01 0.02 0.02 0.03 0.03 0.03 0.03 0.03 0.03 0.03 0.02 0.02 0.02
0.04 0.06 0.07 0.08 0.08 0.07 0.08 0.10 0.10 0.09 0.06 0.03 0.01 0.01 0.01 0.02 0.02 0.02 0.02 0.02 0.02 0.03 0.03 0.02 0.02 0.02 0.02 0.02 0.02 0.02 0.02 0.03 0.03 0.02 0.03 0.02 0.02 0.02
0.05 0.07 0.07 0.09 0.10 0.09 0.10 0.10 0.09 0.08 0.08 0.06 0.03 0.04 0.04 0.03 0.03 0.03 0.01 0.01 0.02 0.02 0.02 0.02 0.02 0.03 0.03 0.02 0.01 0.02 0.02 0.02 0.02 0.02 0.02 0.02 0.02 0.02
0.06 0.08 0.09 0.10 0.10 0.11 0.10 0.09 0.09 0.08 0.08 0.07 0.04 0.05 0.05 0.04 0.04 0.02 0.02 0.02 0.01 0.01 0.02 0.02 0.02 0.02 0.03 0.02 0.01 0.02 0.03 0.02 0.02 0.02 0.02 0.02 0.02 0.02
0.08 0.09 0.11 0.12 0.13 0.13 0.12 0.13 0.11 0.10 0.10 0.08 0.06 0.07 0.07 0.06 0.06 0.04 0.04 0.04 0.03 0.02 0.03 0.02 0.02 0.02 0.02 0.02 0.02 0.01 0.02 0.02 0.02 0.02 0.02 0.02 0.03 0.03
0.11 0.09 0.09 0.11 0.11 0.11 0.09 0.11 0.11 0.10 0.10 0.10 0.09 0.10 0.10 0.10 0.08 0.06 0.04 0.04 0.03 0.02 0.03 0.03 0.02 0.02 0.03 0.04 0.03 0.02 0.02 0.02 0.02 0.02 0.02 0.02 0.02 0.02
0.10 0.10 0.08 0.08 0.08 0.08 0.07 0.06 0.06 0.08 0.10 0.13 0.14 0.14 0.12 0.10 0.07 0.05 0.04 0.04 0.04 0.03 0.05 0.05 0.05 0.05 0.05 0.05 0.05 0.03 0.02 0.03 0.02 0.02 0.02 0.02 0.02 0.02
0.09 0.09 0.07 0.06 0.07 0.06 0.06 0.06 0.06 0.08 0.10 0.12 0.12 0.09 0.08 0.08 0.09 0.07 0.07 0.06 0.05 0.03 0.06 0.05 0.04 0.05 0.06 0.06 0.06 0.03 0.02 0.02 0.01 0.01 0.01 0.02 0.02 0.02
0.07 0.07 0.05 0.05 0.05 0.04 0.04 0.04 0.04 0.05 0.06 0.06 0.07 0.07 0.07 0.08 0.08 0.08 0.07 0.06 0.04 0.04 0.07 0.06 0.04 0.04 0.04 0.06 0.06 0.04 0.02 0.02 0.01 0.01 0.01 0.01 0.01 0.01
0.04 0.04 0.03 0.02 0.03 0.03 0.04 0.03 0.03 0.02 0.03 0.05 0.05 0.06 0.06 0.07 0.07 0.06 0.06 0.06 0.04 0.05 0.07 0.06 0.05 0.06 0.06 0.06 0.05 0.05 0.03 0.02 0.02 0.01 0.01 0.01 0.01 0.01
0.04 0.05 0.03 0.03 0.03 0.02 0.03 0.02 0.02 0.02 0.03 0.03 0.04 0.04 0.03 0.04 0.05 0.04 0.06 0.06 0.05 0.05 0.05 0.06 0.06 0.08 0.08 0.07 0.05 0.04 0.03 0.02 0.01 0.01 0.01 0.02 0.01 0.01
0.04 0.04 0.04 0.04 0.03 0.02 0.02 0.02 0.01 0.02 0.03 0.03 0.03 0.04 0.04 0.04 0.05 0.04 0.04 0.06 0.07 0.06 0.06 0.07 0.07 0.08 0.09 0.06 0.03 0.02 0.02 0.01 0.01 0.01 0.01 0.02 0.03 0.02
0.04 0.04 0.05 0.04 0.04 0.03 0.03 0.02 0.01 0.01 0.02 0.02 0.03 0.03 0.04 0.05 0.06 0.06 0.06 0.05 0.06 0.06 0.06 0.06 0.06 0.07 0.07 0.05 0.03 0.02 0.02 0.01 0.01 0.01 0.01 0.02 0.03 0.04
0.04 0.04 0.05 0.05 0.06 0.05 0.04 0.03 0.02 0.01 0.01 0.02 0.02 0.03 0.03 0.05 0.06 0.07 0.07 0.07 0.08 0.08 0.06 0.05 0.05 0.04 0.05 0.06 0.04 0.03 0.02 0.02 0.02 0.02 0.02 0.02 0.03 0.05
0.07 0.06 0.06 0.06 0.05 0.05 0.05 0.04 0.03 0.03 0.03 0.03 0.03 0.03 0.03 0.03 0.04 0.05 0.06 0.08 0.08 0.07 0.07 0.07 0.06 0.05 0.05 0.05 0.05 0.04 0.04 0.03 0.03 0.02 0.02 0.03 0.03 0.03
0.04 0.04 0.05 0.05 0.05 0.05 0.04 0.04 0.04 0.04 0.04 0.03 0.03 0.03 0.03 0.03 0.03 0.03 0.04 0.04 0.04 0.04 0.05 0.06 0.07 0.07 0.08 0.08 0.07 0.05 0.05 0.05 0.05 0.03 0.03 0.03 0.04 0.04
0.03 0.03 0.03 0.03 0.03 0.03 0.03 0.03 0.03 0.03 0.03 0.03 0.03 0.03 0.03 0.03 0.03 0.03 0.03 0.03 0.03 0.03 0.03 0.04 0.05 0.06 0.07 0.07 0.07 0.07 0.06 0.06 0.06 0.06 0.05 0.05 0.05 0.05
0.02 0.02 0.02 0.02 0.03 0.03 0.03 0.03 0.03 0.04 0.05 0.05 0.05 0.05 0.05 0.04 0.04 0.03 0.03 0.03 0.03 0.03 0.03 0.03 0.04 0.04 0.05 0.05 0.05 0.05 0.06 0.07 0.06 0.06 0.06 0.06 0.05 0.05
0.01 0.01 0.01 0.01 0.02 0.02 0.03 0.04 0.04 0.05 0.06 0.06 0.05 0.05 0.05 0.05 0.05 0.04 0.04 0.05 0.04 0.04 0.04 0.04 0.04 0.04 0.04 0.04 0.05 0.04 0.03 0.05 0.06 0.06 0.05 0.05 0.07 0.07
0.01 0.01 0.01 0.01 0.02 0.02 0.03 0.04 0.05 0.05 0.05 0.05 0.04 0.04 0.04 0.04 0.04 0.05 0.05 0.05 0.05 0.05 0.05 0.04 0.04 0.03 0.04 0.05 0.03 0.02 0.02 0.02 0.03 0.04 0.04 0.04 0.05 0.05
0.01 0.01 0.01 0.02 0.03 0.04 0.05 0.06 0.07 0.07 0.06 0.05 0.04 0.04 0.04 0.05 0.05 0.05 0.05 0.05 0.05 0.04 0.04 0.04 0.03 0.03 0.03 0.03 0.02 0.02 0.02 0.03 0.02 0.01 0.02 0.02 0.03 0.04
0.01 0.02 0.02 0.03 0.04 0.06 0.07 0.06 0.05 0.05 0.05 0.04 0.04 0.04 0.04 0.04 0.04 0.04 0.04 0.05 0.05 0.05 0.05 0.04 0.04 0.04 0.04 0.03 0.02 0.02 0.02 0.03 0.03 0.03 0.03 0.03 0.02 0.02
MSLP
1014.70 1015.12 1015.54 1015.93 1016.23 1016.39 1016.38 1016.16 1015.76 1015.19 1014.50 1013.75 1013.02 1012.35 1011.81 1011.44 1011.25 1011.24 1011.39 1011.66 1012.03 1012.42 1012.81 1013.17 1013.46 1013.68 1013.84 1013.93 1013.98 1014.01 1014.04 1014.09 1014.16 1014.28 1014.44 1014.64 1014.87 1015.14
1013.64 1014.07 1014.52 1014.95 1015.33 1015.58 1015.68 1015.60 1015.33 1014.88 1014.29 1013.61 1012.90 1012.22 1011.63 1011.18 1010.90 1010.78 1010.82 1010.99 1011.26 1011.59 1011.93 1012.25 1012.53 1012.75 1012.92 1013.03 1013.11 1013.17 1013.24 1013.33 1013.45 1013.61 1013.80 1014.04 1014.29 1014.57
1012.45 1012.86 1013.31 1013.76 1014.18 1014.52 1014.73 1014.78 1014.66 1014.36 1013.91 1013.34 1012.72 1012.09 1011.51 1011.04 1010.69 1010.48 1010.41 1010.48 1010.64 1010.87 1011.12 1011.37 1011.60 1011.79 1011.95 1012.07 1012.17 1012.27 1012.38 1012.52 1012.69 1012.89 1013.13 1013.39 1013.66 1013.95
1011.21 1011.58 1012.00 1012.45 1012.89 1013.28 1013.58 1013.75 1013.77 1013.63 1013.34 1012.94 1012.44 1011.92 1011.40 1010.95 1010.58 1010.31 1010.16 1010.12 1010.16 1010.27 1010.41 1010.56 1010.71 1010.84 1010.96 1011.07 1011.18 1011.31 1011.46 1011.65 1011.86 1012.11 1012.38 1012.67 1012.96 1013.26
1010.02 1010.33 1010.70 1011.12 1011.55 1011.96 1012.32 1012.58 1012.73 1012.74 1012.63 1012.39 1012.06 1011.67 1011.26 1010.86 1010.51 1010.22 1010.01 1009.87 1009.79 1009.77 1009.78 1009.81 1009.85 1009.90 1009.97 1010.05 1010.16 1010.31 1010.49 1010.72 1010.98 1011.27 1011.58 1011.90 1012.21 1012.51
1008.96 1009.20 1009.51 1009.87 1010.26 1010.66 1011.04 1011.37 1011.61 1011.76 1011.79 1011.72 1011.55 1011.31 1011.03 1010.72 1010.41 1010.12 1009.87 1009.65 1009.47 1009.32 1009.20 1009.10 1009.03 1009.00 1008.99 1009.03 1009.13 1009.29 1009.50 1009.77 1010.07 1010.41 1010.75 1011.09 1011.42 1011.74
1008.08 1008.26 1008.49 1008.78 1009.12 1009.48 1009.85 1010.20 1010.50 1010.73 1010.89 1010.95 1010.93 1010.83 1010.67 1010.45 1010.21 1009.94 1009.67 1009.39 1009.12 1008.87 1008.63 1008.42 1008.25 1008.12 1008.06 1008.06 1008.14 1008.31 1008.54 1008.84 1009.18 1009.56 1009.94 1010.31 1010.66 1010.99
1007.40 1007.51 1007.68 1007.89 1008.16 1008.47 1008.80 1009.13 1009.45 1009.73 1009.95 1010.11 1010.20 1010.21 1010.14 1010.02 1009.83 1009.59 1009.32 1009.01 1008.69 1008.36 1008.04 1007.75 1007.50 1007.31 1007.20 1007.17 1007.25 1007.42 1007.68 1008.01 1008.38 1008.79 1009.20 1009.59 1009.96 1010.31
1006.90 1006.96 1007.06 1007.21 1007.40 1007.63 1007.90 1008.19 1008.48 1008.76 1009.01 1009.21 1009.35 1009.43 1009.44 1009.38 1009.24 1009.04 1008.78 1008.47 1008.13 1007.77 1007.41 1007.08 1006.79 1006.58 1006.45 1006.43 1006.51 1006.70 1006.98 1007.33 1007.74 1008.16 1008.59 1009.00 1009.38 1009.74
1006.55 1006.57 1006.60 1006.68 1006.79 1006.95 1007.14 1007.36 1007.59 1007.82 1008.05 1008.24 1008.39 1008.50 1008.54 1008.51 1008.42 1008.26 1008.03 1007.75 1007.43 1007.09 1006.74 1006.42 1006.16 1005.96 1005.86 1005.86 1005.97 1006.19 1006.49 1006.87 1007.28 1007.72 1008.15 1008.56 1008.93 1009.28
1006.30 1006.26 1006.24 1006.24 1006.28 1006.35 1006.45 1006.58 1006.73 1006.89 1007.04 1007.19 1007.31 1007.40 1007.45 1007.45 1007.39 1007.27 1007.10 1006.88 1006.62 1006.34 1006.07 1005.82 1005.61 1005.48 1005.44 1005.50 1005.65 1005.90 1006.23 1006.61 1007.02 1007.44 1007.86 1008.24 1008.60 1008.92
1006.10 1006.00 1005.91 1005.84 1005.80 1005.78 1005.79 1005.81 1005.86 1005.92 1005.98 1006.05 1006.12 1006.17 1006.21 1006.21 1006.19 1006.13 1006.03 1005.90 1005.74 1005.57 1005.41 1005.27 1005.18 1005.15 1005.19 1005.31 1005.52 1005.80 1006.14 1006.52 1006.91 1007.30 1007.67 1008.02 1008.33 1008.62
1005.94 1005.76 1005.60 1005.45 1005.32 1005.20 1005.10 1005.02 1004.95 1004.90 1004.87 1004.85 1004.85 1004.85 1004.87 1004.89 1004.90 1004.91 1004.90 1004.89 1004.86 1004.83 1004.81 1004.81 1004.85 1004.93 1005.07 1005.26 1005.52 1005.82 1006.16 1006.52 1006.88 1007.22 1007.54 1007.83 1008.09 1008.33
1005.84 1005.57 1005.31 1005.07 1004.84 1004.62 1004.42 1004.22 1004.04 1003.88 1003.74 1003.63 1003.56 1003.52 1003.52 1003.56 1003.62 1003.71 1003.81 1003.92 1004.04 1004.17 1004.30 1004.44 1004.61 1004.80 1005.03 1005.29 1005.58 1005.89 1006.22 1006.55 1006.86 1007.14 1007.40 1007.63 1007.84 1008.03
1005.84 1005.47 1005.11 1004.77 1004.44 1004.11 1003.79 1003.48 1003.19 1002.92 1002.68 1002.49 1002.36 1002.29 1002.29 1002.35 1002.48 1002.65 1002.86 1003.10 1003.36 1003.63 1003.90 1004.17 1004.45 1004.74 1005.03 1005.33 1005.64 1005.94 1006.25 1006.53 1006.79 1007.03 1007.23 1007.41 1007.57 1007.72
1006.01 1005.53 1005.08 1004.63 1004.19 1003.76 1003.34 1002.92 1002.52 1002.15 1001.83 1001.58 1001.39 1001.30 1001.31 1001.40 1001.58 1001.84 1002.15 1002.50 1002.88 1003.26 1003.64 1004.01 1004.37 1004.71 1005.04 1005.35 1005.65 1005.94 1006.21 1006.46 1006.68 1006.87 1007.04 1007.19 1007.32 1007.45
1006.39 1005.83 1005.29 1004.76 1004.23 1003.71 1003.19 1002.68 1002.19 1001.74 1001.34 1001.03 1000.81 1000.70 1000.71 1000.83 1001.06 1001.38 1001.77 1002.21 1002.66 1003.12 1003.57 1003.99 1004.38 1004.73 1005.06 1005.36 1005.63 1005.89 1006.12 1006.34 1006.53 1006.71 1006.87 1007.01 1007.14 1007.27
1007.03 1006.43 1005.83 1005.24 1004.65 1004.06 1003.46 1002.88 1002.32 1001.80 1001.35 1000.99 1000.74 1000.62 1000.63 1000.76 1001.02 1001.38 1001.80 1002.28 1002.77 1003.25 1003.71 1004.13 1004.51 1004.84 1005.13 1005.38 1005.62 1005.83 1006.04 1006.23 1006.42 1006.60 1006.77 1006.93 1007.08 1007.24
1007.93 1007.32 1006.72 1006.11 1005.49 1004.86 1004.22 1003.59 1002.98 1002.42 1001.92 1001.52 1001.24 1001.10 1001.09 1001.22 1001.48 1001.83 1002.26 1002.72 1003.20 1003.66 1004.09 1004.46 1004.78 1005.05 1005.28 1005.48 1005.67 1005.84 1006.02 1006.21 1006.40 1006.59 1006.79 1006.99 1007.18 1007.37
1009.02 1008.47 1007.91 1007.32 1006.72 1006.10 1005.45 1004.80 1004.17 1003.57 1003.05 1002.61 1002.30 1002.12 1002.09 1002.18 1002.40 1002.72 1003.10 1003.52 1003.94 1004.34 1004.69 1004.99 1005.23 1005.42 1005.57 1005.70 1005.83 1005.96 1006.12 1006.29 1006.49 1006.72 1006.95 1007.18 1007.41 1007.63
1010.24 1009.78 1009.30 1008.80 1008.25 1007.66 1007.05 1006.41 1005.78 1005.17 1004.63 1004.16 1003.81 1003.59 1003.51 1003.55 1003.70 1003.95 1004.26 1004.60 1004.93 1005.24 1005.49 1005.69 1005.84 1005.94 1006.01 1006.06 1006.13 1006.22 1006.34 1006.51 1006.71 1006.94 1007.20 1007.46 1007.71 1007.94
1011.46 1011.14 1010.78 1010.38 1009.92 1009.41 1008.85 1008.25 1007.64 1007.04 1006.49 1006.00 1005.62 1005.34 1005.19 1005.16 1005.24 1005.39 1005.60 1005.84 1006.07 1006.27 1006.42 1006.52 1006.57 1006.58 1006.56 1006.55 1006.55 1006.59 1006.68 1006.81 1007.00 1007.23 1007.48 1007.74 1007.99 1008.22
1012.60 1012.42 1012.20 1011.92 1011.57 1011.15 1010.66 1010.12 1009.55 1008.98 1008.42 1007.92 1007.50 1007.17 1006.95 1006.84 1006.82 1006.88 1006.99 1007.12 1007.25 1007.35 1007.40 1007.41 1007.37 1007.29 1007.20 1007.12 1007.06 1007.04 1007.08 1007.17 1007.32 1007.51 1007.74 1007.97 1008.19 1008.39
Thickness
5759 5758 5757 5757 5757 5756 5754 5749 5740 5733 5735 5742 5744 5746 5745 5742 5739 5737 5735 5732 5729 5727 5726 5724 5722 5720 5718 5716 5714 5713 5711 5710 5708 5707 5706 5704 5703 5701
5758 5756 5755 5755 5755 5754 5752 5749 5745 5738 5733 5739 5741 5743 5741 5739 5736 5733 5730 5729 5726 5724 5722 5720 5719 5717 5715 5713 5711 5710 5708 5706 5705 5704 5702 5700 5699 5697
5756 5754 5753 5752 5751 5749 5748 5745 5743 5739 5732 5735 5739 5739 5737 5734 5731 5729 5728 5726 5723 5722 5720 5718 5716 5713 5711 5709 5707 5705 5704 5702 5700 5699 5698 5697 5695 5693
5752 5751 5749 5749 5747 5745 5743 5741 5739 5738 5732 5727 5730 5730 5730 5729 5726 5724 5723 5722 5721 5720 5718 5715 5713 5710 5707 5705 5702 5700 5699 5697 5695 5694 5693 5691 5690 5688
5750 5747 5746 5744 5741 5740 5738 5736 5735 5735 5731 5725 5724 5726 5724 5724 5720 5719 5718 5716 5715 5715 5713 5711 5709 5706 5704 5701 5699 5696 5694 5692 5691 5689 5688 5686 5685 5683
5747 5745 5743 5740 5738 5735 5734 5732 5731 5728 5725 5722 5720 5719 5717 5718 5715 5710 5709 5709 5708 5708 5706 5704 5703 5701 5698 5696 5694 5692 5689 5687 5685 5684 5682 5680 5679 5678
5742 5742 5740 5738 5735 5732 5731 5728 5725 5722 5719 5716 5713 5711 5710 5707 5705 5705 5701 5701 5701 5702 5699 5698 5697 5694 5692 5690 5688 5686 5684 5682 5680 5678 5676 5674 5673 5671
5737 5736 5735 5733 5730 5728 5725 5723 5721 5717 5713 5710 5707 5704 5703 5702 5701 5698 5695 5692 5690 5695 5692 5691 5691 5688 5686 5685 5684 5682 5679 5676 5674 5672 5670 5668 5666 5664
5732 5731 5730 5729 5725 5722 5719 5717 5715 5714 5711 5707 5703 5700 5698 5697 5695 5691 5688 5686 5685 5687 5686 5683 5685 5683 5682 5682 5680 5677 5674 5671 5668 5666 5664 5662 5660 5658
5727 5725 5723 5721 5720 5715 5712 5710 5709 5707 5706 5704 5701 5698 5697 5695 5692 5688 5685 5682 5682 5682 5682 5676 5678 5677 5678 5675 5673 5671 5668 5664 5662 5660 5658 5656 5654 5651
5720 5719 5717 5714 5712 5709 5705 5702 5700 5699 5699 5697 5695 5693 5691 5689 5686 5682 5679 5675 5673 5674 5676 5672 5671 5670 5669 5668 5665 5663 5660 5657 5654 5653 5651 5649 5647 5644
5712 5711 5710 5707 5704 5701 5698 5695 5691 5691 5690 5688 5686 5685 5684 5682 5680 5677 5674 5670 5668 5666 5668 5666 5664 5663 5660 5661 5658 5655 5652 5650 5648 5646 5644 5642 5639 5637
5703 5702 5701 5699 5696 5693 5690 5687 5685 5683 5682 5679 5678 5676 5676 5674 5673 5671 5669 5667 5662 5660 5661 5659 5657 5655 5652 5651 5651 5649 5647 5645 5642 5640 5637 5635 5633 5631
5694 5694 5692 5689 5686 5684 5681 5680 5678 5675 5674 5671 5669 5668 5666 5665 5665 5664 5662 5661 5659 5656 5655 5653 5650 5647 5645 5642 5641 5642 5641 5640 5637 5634 5632 5629 5626 5624
5686 5684 5682 5680 5677 5676 5675 5672 5670 5667 5666 5663 5661 5660 5660 5659 5657 5655 5654 5653 5652 5650 5648 5646 5644 5642 5640 5636 5635 5635 5633 5632 5631 5628 5626 5623 5620 5618
5675 5673 5671 5670 5669 5667 5666 5665 5664 5662 5660 5657 5655 5654 5654 5652 5650 5649 5646 5644 5642 5641 5641 5640 5638 5636 5632 5631 5629 5628 5627 5625 5623 5622 5620 5617 5615 5613
5664 5663 5662 5661 5661 5659 5659 5658 5657 5656 5653 5651 5649 5647 5645 5645 5643 5642 5639 5638 5635 5632 5631 5632 5631 5629 5627 5625 5621 5621 5619 5618 5616 5615 5613 5610 5609 5607
5655 5655 5653 5653 5652 5651 5649 5648 5647 5646 5645 5643 5641 5639 5637 5636 5634 5633 5632 5630 5627 5626 5624 5624 5623 5620 5618 5616 5615 5613 5612 5610 5609 5608 5607 5603 5601 5601
5646 5646 5644 5644 5643 5642 5641 5639 5638 5637 5636 5634 5632 5631 5629 5627 5626 5624 5623 5622 5621 5619 5618 5617 5614 5611 5607 5605 5607 5607 5605 5604 5602 5601 5599 5598 5596 5595
5640 5639 5637 5636 5635 5633 5632 5630 5629 5628 5626 5625 5624 5622 5621 5619 5617 5616 5615 5614 5612 5611 5611 5610 5607 5605 5602 5601 5600 5600 5600 5598 5596 5594 5593 5592 5591 5590
5633 5630 5628 5627 5625 5624 5623 5621 5619 5617 5616 5615 5615 5614 5612 5611 5609 5609 5608 5606 5605 5605 5604 5603 5604 5603 5601 5598 5594 5594 5594 5594 5592 5590 5588 5586 5585 5584
5625 5623 5621 5619 5617 5615 5613 5612 5610 5608 5607 5606 5605 5605 5604 5603 5602 5601 5601 5600 5599 5599 5599 5598 5598 5597 5595 5592 5589 5589 5588 5587 5586 5585 5583 5582 5580 5579
5617 5615 5613 5611 5609 5607 5604 5602 5601 5599 5598 5597 5597 5596 5595 5595 5594 5594 5594 5594 5593 5592 5592 5591 5590 5589 5589 5587 5585 5584 5583 5582 5581 5579 5577 5578 5577 5576